Regional Weather Roundup
Issued by NWS

Home | Current Version | Previous Version | Text Only | Print | Product List | Glossary Off
Versions: 1 2 3 4 5 6 7 8 9 10 11 12 13 14 15 16 17 18 19 20 21 22 23 24 25 26 27 28 29 30 31 32 33 34 35 36 37 38 39 40 41 42 43 44 45 46 47 48 49 50

000
ASUS43 KDMX 210401
RWRIA

WEATHER ROUNDUP FOR IOWA
NATIONAL WEATHER SERVICE DES MOINES IA
1100 PM CDT FRI APR 20 2018

NOTE: "FAIR" INDICATES FEW OR NO CLOUDS BELOW 12,000 FEET WITH NO
SIGNIFICANT WEATHER AND/OR OBSTRUCTIONS TO VISIBILITY.

* - THESE STATIONS ARE NOT NWS STATIONS...THUS NOT UNDER NWS
QUALITY CONTROL.  THEY ALSO DO NOT REPORT WEATHER SUCH
AS PRECIPITATION OR FOG.

IAZ001>003-012>014-020>022-031>034-043>046-210500-
   NORTHWEST IOWA

CITY           SKY/WX    TMP DP  RH WIND       PRES   REMARKS
CARROLL *      CLOUDY    46  41  81 NE15      30.36F
CHEROKEE *     CLOUDY    39  33  79 NE7       30.38F WCI  34
DENISON *      CLOUDY    46  39  76 E14G21    30.34F
LE MARS *      CLOUDY    43  34  70 NE15G23   30.35F
ORANGE CITY *  CLOUDY    41  37  87 E7        30.37F
SHELDON *      CLOUDY    37  36  93 E8        30.37F WCI  31
SIOUX CITY     CLOUDY    45  34  65 E12       30.33F
SPENCER        CLOUDY    37  31  78 E8        30.40F WCI  31
STORM LAKE *   CLOUDY    37  32  81 NE13      30.37F WCI  29
$$

IAZ055>058-069>071-079>083-090>094-210500-
   SOUTHWEST IOWA

CITY           SKY/WX    TMP DP  RH WIND       PRES   REMARKS
ATLANTIC *     CLOUDY    52  28  40 E8G14     30.32F
AUDUBON *      CLOUDY    48  34  57 E5        30.35F
CLARINDA *     CLOUDY    54  27  35 E8        30.33S
COUNCIL BLFS * CLOUDY    52  30  43 E13       30.30S
CRESTON *      CLOUDY    50  28  43 E14       30.33F
HARLAN  *      CLOUDY    50  30  46 E10       30.35F
LAMONI         CLOUDY    50  25  37 E7        30.32F
RED OAK *      CLOUDY    52  28  40 E9        30.31F
SHENANDOAH *   CLOUDY    54  28  37 E10       30.31S
$$

IAZ047>049-059>061-072>074-084-210500-
   CENTRAL IOWA

CITY           SKY/WX    TMP DP  RH WIND       PRES   REMARKS
AMES           CLOUDY    46  36  68 NE12      30.39S
ANKENY *       CLOUDY    50  27  40 E5        30.39S
BOONE *        CLOUDY    45  37  76 NE12      30.38S
CHARITON *     CLOUDY    50  27  40 E5        30.36S
DES MOINES     CLOUDY    53  26  35 E7        30.37S
GRINNELL*      CLOUDY    47  28  46 E3        30.40S
KNOXVILLE *    CLOUDY    52  21  30 E6        30.35F
MARSHALLTOWN   CLOUDY    45  37  73 NE13      30.39S
NEWTON *       CLOUDY    50  25  37 NE6       30.38S
PELLA *        CLOUDY    52  19  27 E5        30.38F
$$

IAZ004>006-015-016-023>025-035-036-210500-
   NORTH CENTRAL IOWA

CITY           SKY/WX    TMP DP  RH WIND       PRES   REMARKS
ALGONA *       CLOUDY    39  28  65 E7        30.42F WCI  34
CLARION *      CLOUDY    39  32  75 E10       30.42S WCI  32
ESTHERVILLE    CLOUDY    34  29  82 CALM      30.42F
FORT DODGE *   CLOUDY    41  35  79 E10       30.41F
MASON CITY     CLOUDY    36  29  75 N5        30.44S WCI  32
FOREST CITY *  FAIR      36  32  87 CALM      30.43S
WEBSTER CITY * CLOUDY    45  34  65 NE8       30.39F
IOWA FALLS *   CLOUDY    44  33  66 NE7       30.43R
$$

IAZ007>011-017>019-026>030-037>042-050>054-066-210500-
   NORTHEAST IOWA

CITY           SKY/WX    TMP DP  RH WIND       PRES   REMARKS
CEDAR RAPIDS   FAIR      50  22  33 E6        30.39S
CHARLES CITY * CLOUDY    37  27  65 NE6       30.43S WCI  33
CLINTON *      FAIR      44  30  57 E7        30.41S
DECORAH *      FAIR      41  25  52 CALM      30.42S
DUBUQUE        FAIR      47  24  40 SE6       30.41S
MONTICELLO *   FAIR      45  34  65 CALM      30.40F
OELWEIN *      FAIR      43  37  81 NE7       30.41F
$$

IAZ064-065-067-068-078-210500-
   EAST CENTRAL IOWA

CITY           SKY/WX    TMP DP  RH WIND       PRES   REMARKS
DAVENPORT      FAIR      48  24  39 CALM      30.42S
IOWA CITY      FAIR      46  28  49 CALM      30.41F
MUSCATINE *    FAIR      46  28  49 CALM      30.40F
QUAD CITIES    FAIR      44  30  57 E3        30.39F
$$

IAZ062-063-075>077-085>089-095>099-210500-
   SOUTHEAST IOWA

CITY           SKY/WX    TMP DP  RH WIND       PRES   REMARKS
BURLINGTON     CLOUDY    53  21  28 E6        30.38F
FAIRFIELD *    CLOUDY    45  25  45 E7        30.38S
FORT MADISON * CLOUDY    52  25  35 CALM      30.39S
KEOKUK *       CLOUDY    48  28  46 NE3       30.38S
OSKALOOSA *    FAIR      48  24  39 E8        30.37F
CENTERVILLE *    N/A     48  23  37 CALM      30.36F
OTTUMWA        MOCLDY    50  23  34 E8        30.37F
WASHINGTON *   CLOUDY    48  27  43 E5        30.40S
$$

ABBREVIATIONS USED IN REMARKS
   TC - TEMPERATURES IN CELSIUS
  WCI - WIND CHILL INDEX
   HX - HEAT INDEX
  VSB - VISIBILITY
$$




USA.gov is the U.S. government's official web portal to all federal, state and local government web resources and services.